Back to catalog

METOP SG-A

AliveWeatherSSO
NORAD 65159·PAYLOAD·🇪🇺 EU

Launched Aug 13, 2025 from Guiana Space Centre

Loading…

Next Passes (next 24 hours)

TLE

FreshSource: Space-Track

Epoch: Sep 14, 2026, 22:00 UTC

1 65159U 25172A   26257.91676491  .00000024  00000-0  31028-4 0  9992
2 65159  98.7077 315.9793 0000869  91.1786 268.9491 14.21502969 56535

Track METOP SG-A in real time with AllMySat

Download on the App Store